When you browse on this site, cookies collect data to enhance your experience and personalize the content and advertising you see.
Visit our Privacy Policy to learn more. By continuing to use the site, you agree to this use of cookies and data.
  • en Belgique
  • Liste des pays
  • À 7 jours
  • Température de l'eau
  • Carte satellitaire
  • Carte météo
  • Widgets météo
  • user-avatar
    Se connecter

    Météo par heure à Amanzimtoti

    Ce jour, 20 Février, Mercredi

    Heure Température Précipitation Vent Pression Humidité
    00:00 +23°C° 0 mm 6 m/s 756 mmHg 88%
    01:00 +22°C° 0 mm 6 m/s 755 mmHg 90%
    02:00 +22°C° 0 mm 6 m/s 755 mmHg 92%
    03:00 +21°C° 0 mm 6 m/s 754 mmHg 91%
    04:00 +21°C° 0 mm 5 m/s 754 mmHg 91%
    05:00 +21°C° 0 mm 5 m/s 753 mmHg 90%
    06:00 +23°C° 0 mm 5 m/s 753 mmHg 82%
    07:00 +25°C° 0 mm 5 m/s 753 mmHg 73%
    08:00 +27°C° 0 mm 4 m/s 753 mmHg 62%
    09:00 +29°C° 0 mm 4 m/s 753 mmHg 58%
    10:00 +32°C° 0 mm 5 m/s 752 mmHg 54%
    11:00 +34°C° 0 mm 6 m/s 752 mmHg 50%
    12:00 +34°C° 0 mm 6 m/s 752 mmHg 52%
    13:00 +35°C° 0 mm 6 m/s 751 mmHg 53%
    14:00 +35°C° 0 mm 7 m/s 751 mmHg 55%
    15:00 +34°C° 0 mm 6 m/s 751 mmHg 57%
    16:00 +34°C° 0 mm 6 m/s 751 mmHg 60%
    17:00 +34°C° 0 mm 5 m/s 751 mmHg 62%
    18:00 +32°C° 0 mm 4 m/s 752 mmHg 71%
    19:00 +29°C° 0 mm 3 m/s 753 mmHg 80%
    20:00 +27°C° 0 mm 3 m/s 754 mmHg 88%
    21:00 +26°C° 0 mm 4 m/s 755 mmHg 88%
    22:00 +26°C° 0 mm 6 m/s 756 mmHg 88%
    23:00 +24°C° 0 mm 7 m/s 757 mmHg 87%

    Demain, 21 Février, Jeudi

    Heure Température Précipitation Vent Pression Humidité
    00:00 +24°C° 0 mm 7 m/s 757 mmHg 87%
    01:00 +23°C° 0 mm 7 m/s 758 mmHg 87%
    02:00 +23°C° 0 mm 6 m/s 758 mmHg 87%
    03:00 +23°C° 0 mm 6 m/s 758 mmHg 87%
    04:00 +22°C° 0 mm 5 m/s 758 mmHg 88%
    05:00 +22°C° 0 mm 5 m/s 759 mmHg 88%
    06:00 +23°C° 0 mm 5 m/s 759 mmHg 82%
    07:00 +26°C° 0 mm 5 m/s 760 mmHg 77%
    08:00 +27°C° 0 mm 5 m/s 760 mmHg 71%
    09:00 +27°C° 0 mm 5 m/s 760 mmHg 68%
    10:00 +28°C° 0 mm 5 m/s 760 mmHg 66%
    11:00 +29°C° 0 mm 6 m/s 760 mmHg 64%
    12:00 +29°C° 0 mm 6 m/s 760 mmHg 65%
    13:00 +29°C° 0 mm 6 m/s 759 mmHg 66%
    14:00 +28°C° 0 mm 7 m/s 759 mmHg 68%
    15:00 +28°C° 0 mm 6 m/s 759 mmHg 71%
    16:00 +27°C° 0 mm 6 m/s 759 mmHg 73%
    17:00 +27°C° 0 mm 6 m/s 760 mmHg 76%
    18:00 +26°C° 0 mm 6 m/s 760 mmHg 80%
    19:00 +25°C° 0 mm 5 m/s 760 mmHg 83%
    20:00 +23°C° 0 mm 5 m/s 761 mmHg 86%
    21:00 +23°C° 0 mm 5 m/s 761 mmHg 87%
    22:00 +23°C° 0 mm 4 m/s 762 mmHg 88%
    23:00 +23°C° 0 mm 4 m/s 762 mmHg 89%

    Après-demain, 22 Février, Vendredi

    Heure Température Précipitation Vent Pression Humidité
    00:00 +22°C° 0 mm 4 m/s 762 mmHg 90%
    01:00 +22°C° 0 mm 3 m/s 761 mmHg 90%
    02:00 +22°C° 0 mm 3 m/s 761 mmHg 90%
    03:00 +22°C° 0 mm 3 m/s 761 mmHg 89%
    04:00 +22°C° 0 mm 3 m/s 761 mmHg 89%
    05:00 +22°C° 0 mm 3 m/s 760 mmHg 88%
    06:00 +24°C° 0.1 mm 3 m/s 761 mmHg 87%
    07:00 +24°C° 0.1 mm 3 m/s 761 mmHg 85%
    08:00 +24°C° 0.1 mm 3 m/s 761 mmHg 84%
    09:00 +25°C° 0 mm 2 m/s 761 mmHg 80%
    10:00 +26°C° 0 mm 2 m/s 761 mmHg 76%
    11:00 +26°C° 0 mm 2 m/s 761 mmHg 72%
    12:00 +27°C° 0 mm 3 m/s 760 mmHg 71%
    13:00 +27°C° 0 mm 3 m/s 759 mmHg 69%
    14:00 +27°C° 0 mm 4 m/s 759 mmHg 68%
    15:00 +27°C° 0 mm 3 m/s 758 mmHg 71%
    16:00 +26°C° 0 mm 3 m/s 758 mmHg 74%
    17:00 +25°C° 0 mm 3 m/s 757 mmHg 77%
    18:00 +25°C° 0.2 mm 2 m/s 758 mmHg 80%
    19:00 +24°C° 0.2 mm 2 m/s 758 mmHg 84%
    20:00 +24°C° 0.2 mm 1 m/s 758 mmHg 87%
    21:00 +24°C° 0.3 mm 1 m/s 758 mmHg 88%
    22:00 +24°C° 0.3 mm 1 m/s 758 mmHg 89%
    23:00 +23°C° 0.3 mm 1 m/s 758 mmHg 90%

    23 Février, Samedi

    Heure Température Précipitation Vent Pression Humidité
    00:00 +23°C° 0.1 mm 1 m/s 757 mmHg 91%
    01:00 +23°C° 0.1 mm 1 m/s 756 mmHg 91%
    02:00 +23°C° 0.1 mm 1 m/s 755 mmHg 92%
    03:00 +23°C° 0 mm 2 m/s 755 mmHg 92%
    04:00 +23°C° 0 mm 2 m/s 755 mmHg 93%
    05:00 +22°C° 0 mm 3 m/s 754 mmHg 93%
    06:00 +24°C° 0 mm 3 m/s 754 mmHg 91%
    07:00 +24°C° 0 mm 3 m/s 754 mmHg 89%
    08:00 +25°C° 0 mm 3 m/s 754 mmHg 87%
    09:00 +26°C° 0 mm 3 m/s 754 mmHg 81%
    10:00 +28°C° 0 mm 3 m/s 754 mmHg 75%
    11:00 +29°C° 0 mm 4 m/s 753 mmHg 69%
    12:00 +29°C° 0.1 mm 4 m/s 753 mmHg 71%
    13:00 +29°C° 0.1 mm 4 m/s 752 mmHg 72%
    14:00 +29°C° 0.1 mm 4 m/s 751 mmHg 73%
    15:00 +29°C° 0.1 mm 4 m/s 751 mmHg 77%
    16:00 +28°C° 0.1 mm 3 m/s 751 mmHg 80%
    17:00 +28°C° 0.1 mm 3 m/s 751 mmHg 84%
    18:00 +27°C° 0.1 mm 3 m/s 752 mmHg 87%
    19:00 +27°C° 0.1 mm 2 m/s 752 mmHg 91%
    20:00 +26°C° 0.1 mm 1 m/s 753 mmHg 94%
    21:00 +26°C° 0.1 mm 1 m/s 753 mmHg 94%
    22:00 +26°C° 0.1 mm 1 m/s 753 mmHg 94%
    23:00 +26°C° 0.1 mm 1 m/s 753 mmHg 94%

    24 Février, Dimanche

    Heure Température Précipitation Vent Pression Humidité
    00:00 +26°C° 0.1 mm 1 m/s 753 mmHg 93%
    01:00 +26°C° 0.1 mm 1 m/s 753 mmHg 93%
    02:00 +25°C° 0.1 mm 1 m/s 753 mmHg 92%
    03:00 +25°C° 0.1 mm 1 m/s 752 mmHg 92%
    04:00 +25°C° 0.1 mm 1 m/s 752 mmHg 92%
    05:00 +24°C° 0.1 mm 1 m/s 752 mmHg 92%
    06:00 +26°C° 0 mm 1 m/s 752 mmHg 87%
    07:00 +27°C° 0 mm 1 m/s 753 mmHg 83%
    08:00 +28°C° 0 mm 1 m/s 753 mmHg 78%
    09:00 +29°C° 0 mm 2 m/s 753 mmHg 73%
    10:00 +31°C° 0 mm 2 m/s 753 mmHg 68%
    11:00 +33°C° 0 mm 3 m/s 752 mmHg 63%
    12:00 +32°C° 0 mm 4 m/s 752 mmHg 69%
    13:00 +32°C° 0 mm 5 m/s 752 mmHg 75%
    14:00 +30°C° 0 mm 5 m/s 751 mmHg 81%
    15:00 +28°C° 1.2 mm 6 m/s 752 mmHg 85%
    16:00 +27°C° 1.2 mm 6 m/s 752 mmHg 89%
    17:00 +26°C° 1.2 mm 6 m/s 752 mmHg 93%
    18:00 +26°C° 0.4 mm 6 m/s 753 mmHg 93%
    19:00 +24°C° 0.4 mm 6 m/s 754 mmHg 92%
    20:00 +24°C° 0.4 mm 6 m/s 755 mmHg 91%
    21:00 +23°C° 0 mm 6 m/s 755 mmHg 91%
    22:00 +23°C° 0 mm 5 m/s 756 mmHg 90%
    23:00 +22°C° 0 mm 4 m/s 756 mmHg 90%

    25 Février, Lundi

    Heure Température Précipitation Vent Pression Humidité
    00:00 +22°C° 0 mm 4 m/s 756 mmHg 89%
    01:00 +22°C° 0 mm 4 m/s 756 mmHg 89%
    02:00 +22°C° 0 mm 4 m/s 756 mmHg 89%
    03:00 +21°C° 0 mm 4 m/s 756 mmHg 89%
    04:00 +21°C° 0 mm 4 m/s 756 mmHg 89%
    05:00 +21°C° 0 mm 4 m/s 757 mmHg 89%
    06:00 +22°C° 0 mm 4 m/s 757 mmHg 84%
    07:00 +24°C° 0 mm 3 m/s 758 mmHg 80%
    08:00 +25°C° 0 mm 3 m/s 758 mmHg 76%
    09:00 +27°C° 0 mm 3 m/s 758 mmHg 69%
    10:00 +28°C° 0 mm 4 m/s 758 mmHg 62%
    11:00 +29°C° 0 mm 4 m/s 758 mmHg 55%
    12:00 +29°C° 0 mm 5 m/s 758 mmHg 57%
    13:00 +29°C° 0 mm 5 m/s 758 mmHg 58%
    14:00 +30°C° 0 mm 5 m/s 757 mmHg 59%
    15:00 +29°C° 0 mm 4 m/s 757 mmHg 62%
    16:00 +28°C° 0 mm 4 m/s 757 mmHg 64%
    17:00 +27°C° 0 mm 3 m/s 757 mmHg 67%
    18:00 +26°C° 0 mm 2 m/s 758 mmHg 73%
    19:00 +24°C° 0 mm 1 m/s 758 mmHg 79%
    20:00 +21°C° 0 mm 0 m/s 759 mmHg 86%
    21:00 +23°C° 0 mm 1 m/s 759 mmHg 87%
    22:00 +22°C° 0 mm 1 m/s 758 mmHg 88%
    23:00 +22°C° 0 mm 1 m/s 758 mmHg 89%
    Voir plus